Location: Prairie Dale
(45.6972°N, 104.5033°W)
Time: 21:16:11
(UTC+00:00)

STARS - Pass Details

Date: 03 July 2022
Orbit: 620 x 637 km, 98.2° (Epoch: 07 August)

Event Time Altitude Azimuth Distance (km) Brightness Sun altitude
Rises 07:02:54 0° 358° (N) 2,932 ? -21.3°
Reaches altitude 10° 07:05:45 10° 339° (NNW) 2,015 ? -21.3°
Maximum altitude 07:08:33 17° 299° (WNW) 1,593 ? -21.3°
Enters shadow 07:11:18 10° 259° (W) 1,984 ? -21.3°
